CZ-6A DEB, 54514

Orbit data source: Space-Track

CZ-6A DEB, 54514 is space debris in SSO originally from a launch on Fri, 11 Nov 2022 UTC launched from the Taiyaun Space Center, China (TSC). Debris objects in space refer to the collection of defunct objects orbiting the Earth. Examples of debris include non-operational satellites, rocket bodies, and fragments generated from explosions, collisions, or faulty payload assembly.

Loading next visibility...
Identifier
54514, 2022-151JS
Orbit
SSO
Country
Flag of CNCN / PRC
Related business
Manufacturer
SAST
Mission
Spacecraft
Bus & Motor
Unknown
Mass
Unknown
Launch date (UTC)
2022-11-11 (4 years ago)
Launch vehicle
Unknown
Launch site
Taiyaun Space Center, China (TSC)
Object type
Payload
Rocket body
Debris
Shape & HBR
Unknown shape, 0.1 m
Radar Cross Section
Medium (>0.1 m² and <1 m²)

Expand to show TLE details & history
Last TLE update: 7 hours ago

TLE from 7 hours ago
0 CZ-6A DEB
1 54514U 22151JS  26207.59339334  .00000523  00000-0  18418-3 0  9991
2 54514  98.6788 254.2912 0076584 197.2231 162.6355 14.37396778193867
Epoch: 2026-07-26T14:14Z
TLE epoch observation values (Epoch: 2026-07-26T14:14:29.184Z)
Latitude
Longitude
96.38051°
Altitude
822.327 km
Speed
7.415 km/s
True Right ascension
16h 57m 09s
True Declination
0° 00' 00"
Sunlit
Object was in full shadow at epoch
Visualization orbit readout
Latitude
Unknown
Longitude
Unknown
Altitude
Unknown
Speed
Unknown
Apparent Right ascension
Unknown
Apparent Declination
Unknown
Sunlit
N/A
Visualization observer readout
Local Sidereal Time
10:39:17
Azimuth
Unknown
Elevation
Unknown
Doppler factor
Unknown
Orbital elements
Apogee altitude
818.945 km
Perigee altitude
709.547 km
Semi-major axis
7,142.383 km
Eccentricity
0.00766
Inclination
98.6788°
RAAN
254.2912°
Arg. of periapsis
197.2231°
True anomaly
162.89504°
Mean anomaly
162.6355°
Eccentric anomaly
162.76551°
Mean motion
3.59566 °/min
Orbital period
100.12 mins
BSTAR
0.00018418
Loading maneuver chart data...
Computing Atmospheric mass density...
Loading historical data...
Loading historical data...
Loading historical data...
Loading historical data...
Loading historical data...
Loading historical data...
Loading historical data...

Documentation

Showing up to 5 results
|